Dewpoint
27 28 29 28 32 24 30 25 28 29 28 28 29 29 30 31 33 33 33 33 33 33 32 32 32 32 31
25 26 27 28 27 24 24 21 23 29 28 29 29 30 31 33 33 32 32 32 30 30 31 31 31 31 31
24 25 26 26 23 23 24 24 23 26 29 30 30 32 31 30 29 29 28 29 29 30 30 30 30 30 31
25 24 24 25 24 23 23 25 24 25 29 30 30 29 29 28 28 27 27 27 29 30 30 30 30 29 29
25 24 24 24 22 24 23 25 26 27 27 28 27 26 26 26 25 26 26 28 29 28 27 27 27 27 27
25 24 24 24 24 24 24 24 21 29 27 26 27 24 25 24 25 24 27 28 27 27 26 26 26 26 26
23 23 24 25 25 25 25 25 23 28 28 24 26 22 23 21 22 25 27 27 26 25 25 25 25 26 26
24 25 24 26 25 27 26 27 29 29 28 23 24 21 22 20 24 25 24 23 23 24 23 23 24 25 25
28 29 30 29 29 29 27 26 24 24 26 23 23 21 20 21 22 24 22 22 22 21 22 23 23 23 23
31 30 31 31 30 28 27 24 24 23 25 22 22 20 18 21 22 21 21 20 20 21 21 22 21 22 20
31 30 30 31 29 28 27 26 25 23 24 23 23 23 21 20 21 21 20 19 19 19 20 19 21 22 21
29 28 26 25 25 25 25 24 24 22 24 25 23 22 21 19 19 20 20 20 21 20 20 20 21 21 22
28 27 26 26 26 25 26 25 25 24 24 26 24 24 22 20 19 19 19 18 19 21 20 20 21 21 21
27 27 27 25 24 25 24 23 21 22 24 24 24 23 21 20 20 19 18 18 19 19 19 20 21 20 20
27 26 25 24 24 24 22 21 20 20 20 21 21 22 21 21 18 17 17 18 19 19 19 19 19 19 20
26 25 25 24 23 23 21 21 20 19 19 19 19 17 16 16 20 18 17 18 18 19 19 19 19 19 19
25 25 25 24 23 21 21 20 19 18 19 18 17 15 14 12 14 19 19 18 18 18 18 18 19 19 20
Wind_Speed
3 5 13 14 13 9 9 7 7 8 6 6 4 2 3 2 4 6 8 10 11 12 14 15 16 17 18
5 6 7 14 13 12 9 7 7 7 5 4 3 3 2 1 6 7 8 10 11 12 14 15 17 18 18
8 6 4 13 9 6 7 6 5 5 4 3 3 1 2 4 6 6 8 9 11 13 14 15 15 15 17
7 10 7 9 10 12 8 5 7 5 2 4 2 1 2 3 4 5 8 11 10 11 11 12 14 17 19
10 8 10 13 19 10 9 8 6 4 4 6 3 2 3 3 4 6 10 8 6 8 11 15 17 19 20
11 17 16 15 13 12 10 7 6 5 6 5 3 5 3 4 6 10 7 4 7 11 14 17 17 19 21
22 17 16 18 17 13 10 6 6 6 5 5 3 4 3 4 8 5 3 4 13 14 16 17 20 21 21
15 15 10 16 16 10 13 9 8 5 4 4 2 5 4 5 2 0 5 9 12 14 18 19 19 19 20
18 16 17 19 16 16 12 12 4 4 4 3 1 4 5 3 2 2 9 10 13 16 18 17 18 21 17
18 18 16 16 15 8 12 9 5 4 4 4 3 1 4 1 3 5 7 8 16 17 16 15 20 16 18
16 13 11 11 8 8 6 6 5 3 7 3 4 3 3 5 5 6 8 12 13 13 12 18 22 21 20
16 14 13 10 9 10 9 8 6 6 9 6 3 5 3 5 8 5 11 13 11 11 11 18 21 21 22
15 12 10 10 11 10 8 7 5 4 5 6 5 5 6 8 8 10 10 9 13 9 13 15 17 17 20
13 12 11 12 10 7 6 6 3 3 4 4 5 6 5 10 11 15 12 8 7 13 14 16 18 17 18
14 13 12 11 8 7 5 5 4 3 3 2 2 5 9 10 12 12 11 10 12 14 16 18 18 18 18
14 14 14 13 11 8 5 5 5 4 4 3 2 4 4 8 18 12 9 11 14 16 16 17 19 18 19
14 13 13 12 13 10 7 5 5 4 4 3 3 2 5 6 5 12 12 14 16 17 16 16 20 24 21
Wind_Direction
148 170 176 173 169 166 166 172 176 184 180 186 181 231 258 274 298 305 319 316 316 316 313 312 312 312 314
161 155 179 177 166 170 173 182 186 190 191 190 213 245 262 304 299 318 315 308 310 310 308 309 311 312 313
150 158 137 171 163 165 169 184 199 197 188 197 206 200 307 306 316 319 313 313 314 312 308 306 306 308 314
143 156 158 166 169 171 180 184 191 186 181 186 159 23 334 312 310 315 315 312 313 311 315 317 319 313 309
156 152 161 167 188 176 182 176 193 191 203 212 212 267 246 270 279 302 310 302 315 335 328 323 314 307 305
169 171 180 177 166 167 161 167 200 187 185 196 210 246 241 253 292 309 291 276 339 322 319 319 313 313 310
173 178 167 175 163 165 169 168 170 156 168 233 212 257 218 275 310 299 275 295 331 326 322 320 318 314 309
162 156 153 156 162 162 165 140 109 138 169 229 196 266 271 303 304 346 14 336 330 326 323 322 318 315 311
119 129 137 144 139 134 151 149 157 173 175 204 161 301 301 281 202 243 340 336 328 324 321 320 317 318 310
114 117 125 139 152 146 147 165 134 151 177 185 156 8 309 234 234 287 314 320 321 319 318 317 322 319 313
124 127 133 142 124 105 121 148 141 124 172 159 167 180 223 293 289 303 312 315 316 315 314 319 320 319 313
147 149 153 131 123 117 115 105 93 127 154 168 189 200 211 267 277 313 308 305 300 304 309 314 314 313 308
159 147 147 141 128 120 114 117 126 152 177 187 193 203 223 241 270 283 308 306 303 286 305 303 301 303 305
138 133 132 144 153 145 148 148 169 172 151 172 197 202 232 244 252 270 280 280 286 295 299 295 293 294 291
143 149 150 155 155 155 141 156 177 169 197 221 234 249 252 251 268 259 272 277 282 293 302 297 294 296 297
146 153 162 166 163 162 153 174 195 199 203 220 268 312 300 266 230 262 276 277 293 300 297 295 299 301 293
161 163 162 166 170 176 178 187 213 212 218 213 219 252 293 297 286 226 263 287 299 295 298 296 293 294 300